TimeCDT,TemperatureF,Dew PointF,Humidity,Sea Level PressureIn,VisibilityMPH,Wind Direction,Wind SpeedMPH,Gust SpeedMPH,PrecipitationIn,Events,Conditions,WindDirDegrees,DateUTC
12:12 AM,46.4,35.6,66,30.03,10.0,North,9.2,-,N/A,,Scattered Clouds,350,2011-11-02 05:12:00
12:32 AM,46.4,35.6,66,30.03,10.0,North,10.4,17.3,N/A,,Light Drizzle,350,2011-11-02 05:32:00
12:52 AM,44.6,37.4,76,30.03,10.0,North,10.4,-,N/A,Rain,Light Rain,360,2011-11-02 05:52:00
1:11 AM,44.6,37.4,76,30.04,10.0,North,8.1,-,N/A,Rain,Light Rain,350,2011-11-02 06:11:00
1:32 AM,44.6,35.6,71,30.05,10.0,North,6.9,-,N/A,,Overcast,360,2011-11-02 06:32:00
1:52 AM,44.6,35.6,71,30.06,10.0,North,4.6,-,N/A,,Overcast,360,2011-11-02 06:52:00
2:12 AM,44.6,35.6,71,30.06,10.0,North,6.9,-,N/A,,Light Drizzle,360,2011-11-02 07:12:00
2:32 AM,44.6,35.6,71,30.07,10.0,North,8.1,-,N/A,,Overcast,350,2011-11-02 07:32:00
2:52 AM,44.6,35.6,71,30.08,10.0,North,6.9,-,N/A,,Overcast,350,2011-11-02 07:52:00
3:12 AM,44.6,33.8,66,30.08,10.0,North,6.9,-,N/A,,Overcast,360,2011-11-02 08:12:00
3:32 AM,44.6,33.8,66,30.09,10.0,North,6.9,-,N/A,,Overcast,350,2011-11-02 08:32:00
3:52 AM,44.6,33.8,66,30.10,10.0,North,5.8,-,N/A,,Overcast,350,2011-11-02 08:52:00
4:52 AM,44.6,33.8,66,30.11,10.0,NNW,6.9,-,N/A,,Overcast,340,2011-11-02 09:52:00
5:52 AM,44.6,33.8,66,30.12,10.0,NNW,11.5,-,N/A,,Overcast,340,2011-11-02 10:52:00
6:12 AM,44.6,33.8,66,30.12,10.0,North,5.8,-,N/A,,Overcast,360,2011-11-02 11:12:00
6:32 AM,44.6,33.8,66,30.12,10.0,North,6.9,-,N/A,,Overcast,350,2011-11-02 11:32:00
6:52 AM,44.6,33.8,66,30.13,10.0,NNW,8.1,-,N/A,,Overcast,340,2011-11-02 11:52:00
7:31 AM,44.6,33.8,66,30.14,10.0,NNW,9.2,-,N/A,,Overcast,330,2011-11-02 12:31:00
7:52 AM,44.6,33.8,66,30.15,10.0,NNW,5.8,-,N/A,,Overcast,340,2011-11-02 12:52:00
8:12 AM,44.6,33.8,66,30.16,10.0,NW,10.4,-,N/A,,Mostly Cloudy,320,2011-11-02 13:12:00
8:31 AM,42.8,33.8,70,30.17,10.0,NW,9.2,-,N/A,,Scattered Clouds,310,2011-11-02 13:31:00
8:52 AM,44.6,33.8,66,30.17,10.0,NW,10.4,-,N/A,,Scattered Clouds,320,2011-11-02 13:52:00
9:12 AM,42.8,33.8,70,30.17,10.0,NNW,6.9,-,N/A,,Scattered Clouds,330,2011-11-02 14:12:00
9:31 AM,44.6,33.8,66,30.18,10.0,NNW,5.8,-,N/A,,Scattered Clouds,330,2011-11-02 14:31:00
9:52 AM,44.6,33.8,66,30.18,10.0,NNW,6.9,-,N/A,,Mostly Cloudy,330,2011-11-02 14:52:00
10:12 AM,44.6,33.8,66,30.18,10.0,NNW,8.1,-,N/A,,Mostly Cloudy,330,2011-11-02 15:12:00
10:31 AM,44.6,33.8,66,30.17,10.0,NNW,6.9,-,N/A,,Scattered Clouds,330,2011-11-02 15:31:00
10:52 AM,44.6,32.0,61,30.18,10.0,NNW,10.4,-,N/A,,Clear,340,2011-11-02 15:52:00
11:12 AM,44.6,33.8,66,30.17,10.0,NNW,10.4,-,N/A,,Clear,330,2011-11-02 16:12:00
11:31 AM,46.4,33.8,62,30.17,10.0,NNW,10.4,-,N/A,,Scattered Clouds,340,2011-11-02 16:31:00
11:52 AM,46.4,33.8,62,30.16,10.0,NNW,10.4,-,N/A,,Scattered Clouds,330,2011-11-02 16:52:00
12:12 PM,48.2,33.8,58,30.17,10.0,NNW,10.4,-,N/A,,Scattered Clouds,340,2011-11-02 17:12:00
12:31 PM,48.2,32.0,54,30.16,10.0,NNW,12.7,-,N/A,,Overcast,330,2011-11-02 17:31:00
1:12 PM,48.2,32.0,54,30.15,10.0,NNW,11.5,-,N/A,,Overcast,340,2011-11-02 18:12:00
1:31 PM,48.2,30.2,50,30.15,10.0,NNW,8.1,-,N/A,,Mostly Cloudy,340,2011-11-02 18:31:00
1:52 PM,48.2,30.2,50,30.15,10.0,NNW,11.5,-,N/A,,Mostly Cloudy,340,2011-11-02 18:52:00
2:12 PM,46.4,30.2,53,30.15,10.0,NNW,13.8,-,N/A,,Mostly Cloudy,340,2011-11-02 19:12:00
2:31 PM,48.2,28.4,46,30.16,10.0,NNW,11.5,16.1,N/A,,Mostly Cloudy,340,2011-11-02 19:31:00
2:52 PM,46.4,28.4,50,30.15,10.0,North,9.2,-,N/A,,Scattered Clouds,350,2011-11-02 19:52:00
3:12 PM,46.4,28.4,50,30.15,10.0,North,10.4,-,N/A,,Clear,360,2011-11-02 20:12:00
3:32 PM,46.4,28.4,50,30.16,10.0,NW,9.2,-,N/A,,Clear,320,2011-11-02 20:32:00
3:52 PM,46.4,28.4,50,30.15,10.0,NNW,12.7,16.1,N/A,,Clear,340,2011-11-02 20:52:00
4:11 PM,46.4,28.4,50,30.15,10.0,NNW,12.7,-,N/A,,Clear,340,2011-11-02 21:11:00
4:32 PM,46.4,26.6,46,30.16,10.0,NNW,10.4,17.3,N/A,,Clear,340,2011-11-02 21:32:00
4:52 PM,46.4,26.6,46,30.16,10.0,NNW,9.2,-,N/A,,Clear,330,2011-11-02 21:52:00
5:12 PM,46.4,26.6,46,30.17,10.0,NNW,10.4,-,N/A,,Clear,330,2011-11-02 22:12:00
5:32 PM,46.4,26.6,46,30.18,10.0,NNW,9.2,-,N/A,,Clear,330,2011-11-02 22:32:00
5:52 PM,44.6,26.6,49,30.18,10.0,NNW,5.8,-,N/A,,Clear,330,2011-11-02 22:52:00
6:12 PM,44.6,26.6,49,30.18,10.0,NNW,4.6,-,N/A,,Clear,330,2011-11-02 23:12:00
6:32 PM,42.8,26.6,53,30.18,10.0,North,4.6,-,N/A,,Clear,350,2011-11-02 23:32:00
6:52 PM,42.8,26.6,53,30.20,10.0,NNW,4.6,-,N/A,,Clear,330,2011-11-02 23:52:00
7:12 PM,39.2,26.6,61,30.21,10.0,NNW,4.6,-,N/A,,Clear,330,2011-11-03 00:12:00
7:32 PM,37.4,24.8,60,30.22,10.0,NNW,4.6,-,N/A,,Clear,330,2011-11-03 00:32:00
7:52 PM,37.4,24.8,60,30.23,10.0,NW,4.6,-,N/A,,Clear,320,2011-11-03 00:52:00
8:11 PM,41.0,26.6,57,30.22,10.0,NNW,8.1,-,N/A,,Clear,340,2011-11-03 01:11:00
8:32 PM,39.2,26.6,61,30.21,10.0,NNW,8.1,-,N/A,,Clear,330,2011-11-03 01:32:00
8:52 PM,39.2,26.6,61,30.21,10.0,NNW,8.1,-,N/A,,Clear,330,2011-11-03 01:52:00
9:11 PM,39.2,26.6,61,30.21,10.0,NNW,6.9,-,N/A,,Clear,330,2011-11-03 02:11:00
9:32 PM,39.2,26.6,61,30.20,10.0,NNW,9.2,-,N/A,,Clear,340,2011-11-03 02:32:00
9:52 PM,39.2,28.4,65,30.21,10.0,NNW,9.2,-,N/A,,Clear,340,2011-11-03 02:52:00
10:11 PM,39.2,26.6,61,30.22,10.0,North,6.9,-,N/A,,Clear,350,2011-11-03 03:11:00
10:32 PM,39.2,26.6,61,30.24,10.0,North,5.8,-,N/A,,Clear,350,2011-11-03 03:32:00
10:52 PM,37.4,26.6,65,30.23,10.0,North,5.8,-,N/A,,Clear,350,2011-11-03 03:52:00
11:11 PM,37.4,26.6,65,30.23,10.0,North,5.8,-,N/A,,Clear,350,2011-11-03 04:11:00
11:32 PM,37.4,26.6,65,30.23,10.0,North,6.9,-,N/A,,Clear,350,2011-11-03 04:32:00
11:52 PM,37.4,26.6,65,30.23,10.0,North,6.9,-,N/A,,Clear,350,2011-11-03 04:52:00